RH
44 46 37 31 31 31 31 30 29 27 26 27 28 29 31 32 31 31 31 33 36 36 33 31 37 54 32 30 30 28 31 27 34 46 50 45 44 41 40 36 30 30 32 33
40 39 40 39 34 34 36 35 31 30 31 33 33 32 34 32 31 30 30 32 32 33 33 31 30 51 33 30 31 29 30 27 32 44 54 55 54 52 49 41 34 34 38 33
38 33 34 36 37 39 38 40 39 36 35 35 35 33 30 27 22 27 30 31 32 35 35 33 33 47 36 33 30 30 29 27 31 40 54 61 62 58 54 48 38 39 40 37
32 32 34 36 37 38 36 34 35 35 36 34 33 26 25 22 25 29 29 32 39 32 29 35 39 78 53 36 34 31 30 28 30 43 46 41 45 65 65 61 44 45 43 42
30 32 33 35 35 35 34 36 36 36 36 36 32 32 27 25 24 24 32 49 36 34 33 32 30 54 85 41 35 35 35 34 33 42 51 45 50 58 74 78 53 51 51 47
40 37 40 37 33 33 36 37 35 37 36 39 33 30 28 23 21 24 36 59 34 33 30 29 32 32 54 40 34 35 37 36 40 58 63 56 55 67 76 78 68 59 59 56
34 34 41 46 44 36 36 35 33 30 34 36 26 25 23 29 32 34 54 54 38 31 30 33 32 32 31 31 30 34 35 37 48 77 88 72 69 82 76 77 84 73 69 66
40 32 30 50 58 43 35 33 33 36 29 22 20 23 23 35 46 40 37 35 34 31 32 30 29 25 25 34 35 35 35 37 52 81 96 96 98 90 71 94 97 85 78 80
48 42 55 66 68 67 48 44 38 38 35 36 31 26 39 38 39 36 36 36 38 37 40 36 31 38 42 41 40 38 37 35 40 55 98 98 98 75 95 100 99 98 97 99
59 66 54 50 75 64 69 72 72 62 80 62 33 28 24 35 54 64 67 65 73 44 42 42 40 40 41 41 42 40 38 38 40 39 50 89 100 99 100 99 98 99 99 100
58 70 76 64 62 50 43 63 88 95 98 95 75 46 70 67 90 94 77 69 62 70 31 37 30 29 31 35 36 38 42 41 41 39 47 90 100 100 100 100 100 100 98 97
50 54 59 49 41 43 55 66 74 96 91 85 96 74 96 98 95 94 96 75 64 68 30 23 26 26 27 25 27 32 34 46 54 50 50 93 100 100 100 100 100 99 99 99
85 78 62 49 38 32 28 27 32 38 49 93 89 74 96 95 97 91 91 73 64 52 37 33 39 32 29 31 29 22 39 73 79 75 78 98 100 100 100 100 100 100 98 96
95 78 70 65 47 37 34 32 53 44 91 93 97 96 91 92 92 86 83 87 70 64 75 34 36 44 38 53 47 54 60 82 99 100 100 100 100 100 99 98 97 96 96 95
91 90 68 68 62 58 55 35 32 67 93 98 74 67 54 43 48 67 68 54 53 48 68 82 58 43 45 46 50 69 80 99 100 98 98 97 98 97 96 97 96 96 96 96
64 89 78 68 62 58 57 57 64 45 43 35 35 40 37 34 34 67 68 54 54 51 56 74 96 94 57 51 57 59 72 87 98 95 98 100 100 98 98 97 96 97 97 96
76 84 82 83 64 60 89 64 42 41 37 34 34 34 35 38 40 60 58 51 53 68 87 86 90 100 88 70 70 68 72 79 86 85 93 97 100 96 95 96 96 96 96 96
68 66 69 89 80 84 45 56 52 38 38 38 36 43 42 39 48 71 69 70 69 93 91 94 51 43 90 98 58 58 76 86 82 92 94 97 95 95 96 96 96 96 96 95
72 81 73 80 90 71 55 47 47 35 42 31 30 40 49 45 52 62 59 74 81 62 45 40 35 30 29 38 62 35 45 68 95 96 100 97 97 96 97 96 96 97 96 95
68 69 82 67 79 78 45 35 38 51 37 48 44 39 39 44 57 63 85 79 62 55 44 34 30 40 40 38 33 26 26 42 68 89 98 98 98 96 97 97 97 96 95 94
56 92 95 80 72 51 42 39 35 87 43 46 41 42 42 52 57 81 78 82 59 40 28 27 41 46 44 50 51 36 34 49 54 71 74 97 98 97 100 95 96 95 95 96
66 60 66 92 94 82 63 46 42 64 60 53 61 49 56 59 70 64 59 44 31 25 21 25 26 24 30 48 57 61 57 61 66 81 97 100 99 100 96 97 96 96 97 96
70 80 96 93 83 70 79 88 82 92 86 66 57 72 70 67 74 75 76 49 24 11 6 6 8 10 19 42 48 81 73 66 80 100 99 99 99 97 97 96 94 95 96 95
57 64 69 77 70 86 92 96 67 72 88 76 75 66 70 66 69 70 53 45 47 14 7 8 8 11 25 30 56 78 86 80 96 100 99 98 96 97 97 94 97 95 95 95
61 64 71 67 66 78 85 89 90 84 87 80 87 75 64 62 61 56 54 46 41 19 11 11 13 14 27 73 64 97 94 85 88 94 96 95 96 96 96 95 95 96 97 94
62 60 68 70 66 67 79 93 98 90 96 85 76 71 77 75 70 62 51 36 56 56 16 16 14 15 36 58 80 95 98 98 97 97 96 96 97 96 95 95 94 96 51 14
Wind_Speed
19 19 25 21 23 26 28 31 32 30 27 30 34 36 33 31 33 32 31 30 28 27 25 25 25 29 30 35 38 41 42 39 40 39 39 39 39 37 35 32 28 28 28 26
24 33 25 23 25 27 28 31 35 34 30 32 36 43 35 29 32 35 34 34 33 30 27 26 27 33 34 33 38 37 41 40 38 39 39 40 39 37 36 32 30 30 28 26
32 30 13 19 23 25 30 31 33 36 31 35 34 52 42 37 32 25 27 22 19 21 24 23 24 35 39 37 36 37 40 41 39 39 40 41 41 40 37 34 34 32 29 27
24 27 31 32 33 26 41 26 30 32 30 29 21 34 36 28 22 15 17 27 31 32 34 34 31 22 37 39 37 34 41 42 40 40 40 40 39 38 37 35 36 34 31 30
11 8 15 19 21 22 42 29 32 32 34 33 48 31 59 30 35 37 31 25 35 31 26 28 32 25 29 38 39 37 36 42 44 42 43 43 42 41 40 38 38 37 35 35
24 23 19 22 20 19 21 23 26 28 32 23 65 30 39 40 35 29 28 23 26 28 26 26 26 34 29 34 37 39 39 38 40 43 45 47 45 44 43 42 41 41 41 39
20 22 18 20 19 19 17 16 13 18 21 21 45 33 32 21 26 30 25 21 23 28 25 25 29 28 32 34 38 36 36 36 37 42 45 47 45 47 46 44 43 41 42 41
25 29 23 14 13 18 21 22 25 17 18 22 32 31 31 24 27 24 20 19 19 24 30 28 26 30 35 35 37 36 33 34 34 39 41 45 47 50 48 46 46 46 47 46
21 28 14 9 15 13 17 30 34 37 42 34 44 45 23 25 25 24 24 23 25 25 26 30 32 29 27 28 30 31 32 35 33 32 37 42 45 47 44 47 48 48 49 50
18 24 27 22 17 20 22 25 19 19 10 28 30 42 45 38 31 19 13 12 8 18 21 25 28 30 26 25 26 27 29 31 36 38 37 37 38 42 44 46 47 50 48 47
16 18 22 19 24 29 31 28 22 15 11 7 8 24 10 11 13 9 10 6 4 7 8 8 10 13 15 23 26 28 32 35 31 33 33 33 39 46 47 48 49 48 49 46
21 29 31 33 31 29 32 30 28 20 7 17 14 17 11 1 7 5 6 5 4 7 9 8 10 11 10 15 22 21 30 33 32 34 35 36 40 43 45 45 44 45 46 44
20 17 29 34 36 37 42 43 43 45 33 30 21 20 10 4 7 6 10 8 8 12 16 15 14 16 15 16 16 21 23 24 26 28 31 33 37 39 41 42 44 45 44 39
19 27 36 30 36 37 40 39 28 31 25 20 19 14 21 19 19 15 18 13 12 14 17 18 19 19 17 14 15 16 15 14 16 22 26 30 33 35 35 36 37 36 34 33
22 27 33 40 41 41 46 47 46 35 37 27 33 33 33 29 28 28 18 17 19 18 17 17 18 18 18 16 13 12 12 13 16 19 22 23 25 27 29 31 33 34 32 27
30 35 29 35 35 40 44 44 39 39 40 42 39 42 36 34 29 24 19 19 17 16 15 16 18 16 15 16 14 13 11 12 15 13 17 18 21 25 28 29 28 25 26 25
32 34 34 37 31 35 28 45 43 40 38 37 40 38 31 29 27 22 16 15 15 15 16 14 10 13 16 13 18 17 14 13 11 8 10 16 17 18 20 23 25 26 25 26
32 34 37 40 32 25 41 30 36 37 34 32 33 33 28 27 22 16 12 12 14 9 8 8 13 14 11 20 20 18 18 19 19 20 17 17 13 16 18 20 20 24 26 23
30 34 38 38 35 31 38 25 24 24 30 27 29 25 20 20 19 16 14 15 14 16 17 20 23 26 24 19 26 26 23 21 25 25 27 26 26 19 21 22 24 26 22 20
22 26 31 34 29 23 33 26 26 23 35 25 21 23 21 18 16 13 12 13 15 18 22 23 23 21 23 22 26 32 28 27 23 25 28 32 28 21 24 21 22 21 21 22
18 16 30 35 34 35 36 33 27 23 19 9 11 17 16 17 13 13 16 11 20 21 18 19 19 20 22 20 23 29 29 26 26 24 27 31 25 29 26 18 17 20 21 21
17 20 22 21 24 24 22 28 30 24 14 15 11 11 13 14 20 23 22 22 20 17 23 24 24 24 22 23 20 22 22 23 25 24 24 26 29 30 22 16 18 18 20 21
10 14 16 15 15 26 25 17 20 25 14 16 19 9 12 16 18 13 11 16 21 18 18 22 22 21 22 23 23 20 19 18 21 21 25 26 28 27 19 17 18 18 20 23
17 16 23 22 18 21 16 14 19 22 16 15 13 11 12 14 14 13 12 11 10 15 13 16 19 22 22 24 26 19 17 13 17 22 25 23 21 18 17 18 18 18 20 22
25 23 23 25 21 20 18 17 14 14 18 12 14 15 16 16 16 15 14 14 15 18 17 19 23 24 23 21 25 16 15 13 15 20 19 15 17 18 17 18 18 18 21 20
20 21 21 25 20 21 17 15 10 11 12 15 16 19 19 19 20 19 20 21 16 18 24 26 29 26 23 21 19 16 13 14 16 19 18 16 16 17 19 20 19 20 19 19
Wind_Direction
254 245 234 241 252 260 263 267 267 264 264 270 268 269 266 266 269 268 265 262 258 255 254 254 248 248 250 257 256 253 247 243 239 239 239 241 244 246 246 247 248 251 253 255
256 246 254 256 253 254 259 265 265 270 268 268 274 273 269 263 261 262 264 264 265 260 253 247 241 245 250 256 256 253 244 243 242 239 237 239 243 246 246 245 245 248 252 252
254 254 261 258 258 258 257 258 272 273 276 268 276 275 272 275 279 251 243 249 248 238 226 225 236 244 251 247 254 251 242 244 241 238 238 240 243 244 245 244 242 244 248 249
259 265 257 258 255 256 268 265 269 274 273 269 262 279 272 272 261 247 258 239 225 225 230 214 203 236 247 242 247 247 241 243 241 239 241 245 249 251 251 247 242 244 246 246
233 256 273 266 265 259 263 269 266 265 269 280 268 249 273 263 262 260 240 232 234 237 235 238 230 223 253 243 245 245 246 243 241 239 240 243 247 249 248 244 242 243 245 246
262 259 267 268 265 258 264 266 268 266 257 257 257 254 260 265 262 247 219 226 229 224 231 243 236 235 236 247 246 250 249 248 243 239 237 240 245 248 248 247 244 242 243 244
275 262 268 269 274 263 268 261 262 248 237 242 264 265 246 255 240 223 220 236 241 246 245 240 236 244 247 253 251 251 249 249 241 239 240 240 242 246 248 248 244 244 245 246
274 269 267 242 263 259 252 249 245 270 264 269 260 244 265 236 233 237 247 244 243 252 258 261 254 255 260 254 257 252 252 252 244 238 242 246 240 242 245 246 241 240 241 241
282 272 258 275 261 256 267 250 260 268 264 270 265 267 270 259 259 262 259 257 255 254 257 263 262 259 256 254 255 250 252 253 250 246 241 245 249 249 250 244 239 238 241 246
269 281 264 270 276 274 252 264 272 248 260 258 252 255 259 249 234 237 235 236 244 256 259 262 267 270 272 268 263 263 259 256 254 251 248 245 249 250 249 251 250 250 251 253
272 273 272 267 260 270 270 258 262 267 275 295 271 258 281 230 203 203 221 205 228 243 250 242 280 276 270 268 270 271 267 264 257 253 246 239 242 244 243 243 245 245 247 249
272 282 277 271 267 269 271 274 271 270 273 278 291 281 325 349 174 233 233 218 258 243 235 240 242 250 259 277 273 271 260 257 252 249 244 237 240 241 243 244 245 245 247 245
279 267 277 272 269 264 259 265 264 263 268 259 259 260 248 340 277 259 262 275 281 266 252 248 244 244 248 256 264 269 256 248 246 241 237 235 239 244 245 243 244 247 249 254
270 270 265 266 269 275 278 277 288 256 252 249 244 293 299 298 291 283 289 280 273 273 265 262 259 265 266 268 291 279 241 247 252 241 235 236 240 243 245 248 250 250 251 253
276 270 272 271 270 272 272 265 266 257 260 263 278 278 284 284 287 288 269 279 275 270 260 257 271 268 275 277 297 314 316 260 263 261 258 255 254 255 254 252 250 252 251 234
267 274 277 278 274 270 270 260 260 263 269 272 274 278 279 281 280 280 284 260 262 261 262 260 259 264 265 271 271 282 305 324 252 263 259 252 249 247 247 249 249 236 223 217
262 266 275 274 279 274 284 257 253 256 263 267 275 281 282 277 272 271 252 254 253 253 244 249 249 266 285 273 272 266 261 271 277 271 269 253 238 239 236 231 230 231 216 213
263 260 263 265 270 270 272 283 245 250 255 261 268 269 269 270 266 264 236 251 248 240 248 267 282 281 278 284 278 283 276 260 256 259 260 261 250 245 246 242 236 227 226 225
253 253 252 253 255 270 281 277 267 265 270 261 266 266 262 261 250 253 255 226 226 249 271 281 287 296 289 276 278 274 276 274 264 254 261 260 256 253 256 253 247 250 246 241
260 255 243 242 254 259 265 276 288 286 255 260 251 261 257 255 247 248 203 218 256 270 279 291 291 290 288 286 273 280 272 272 271 276 265 262 258 273 264 259 257 257 252 241
286 263 237 236 244 257 262 264 277 278 250 292 271 247 242 229 230 232 244 255 271 285 283 294 285 285 291 303 282 279 274 277 266 258 274 272 268 252 252 252 251 251 242 239
302 284 254 242 243 259 276 261 258 261 273 265 258 228 221 221 231 236 248 268 272 277 289 293 293 293 296 297 294 276 271 274 267 247 241 247 252 259 251 251 258 252 245 242
296 320 311 281 279 273 296 288 262 241 282 250 238 237 218 229 234 238 246 259 270 282 296 302 295 301 300 291 304 288 270 268 258 241 235 240 245 244 246 253 255 251 244 236
290 296 297 305 289 290 290 270 279 276 264 251 252 255 246 229 230 234 247 266 277 285 290 315 323 316 303 305 305 279 254 248 246 232 230 233 232 235 245 253 252 250 239 223
287 297 291 286 295 307 304 280 266 273 275 271 251 232 236 236 239 247 252 267 272 280 295 298 315 326 310 298 317 260 240 237 237 236 229 217 220 230 240 249 246 241 234 215
281 283 285 281 287 288 294 302 291 249 266 258 248 245 241 242 250 256 256 270 277 276 285 292 300 319 315 290 304 280 252 248 229 221 212 212 226 240 246 243 235 226 221 219